Flag for Australia Weather past 2 weeks in Broken Hill, New South Wales, Australia

Now
51 °F

Cool.


Feels Like: 48 °F
Forecast: 44 / 53 °F
Wind: 10 mph from Southwest

Location: Yunta

Current Time: Aug 3, 2015 at 6:56:29 PM

Latest Report: Aug 3, 2015 at 5:30 PM


Visibility: N/A

Pressure: 30.28 "Hg

Humidity: 77%

Dew point: 44 °F

Location of Broken HillLocation

Historic Weather in Broken Hill — Graph

°F

Broken Hill temperature yesterday

Maximum temperature yesterday: 56 °F (at 1:30 PM)
Minimum temperature yesterday: 44 °F (at 7:30 AM)
Average temperature yesterday: 50 °F

Past Weeks' High & Low Weather Summary

 TemperatureHumidityPressure
High69 °F (Aug 1, 12:00 PM)93% (Jul 27, 4:30 AM)30.66 "Hg (Jul 27, 4:30 AM)
Low24 °F (Jul 20, 6:00 AM)20% (Aug 1, 11:30 AM)29.92 "Hg (Aug 1, 2:30 PM)
Average48 °F66%30.22 "Hg
* Reported Jul 19 5:30 PM — Aug 3 5:30 PM, Broken Hill, Weather by CustomWeather, © 2015

Note: Actual official high and low records may vary slightly from our data, if they occured in-between our weather recording intervals... More about our weather records

Advertising

Broken Hill weather history for previous 24 hours

 ConditionsComfort  
Time TempWeatherWind HumidityBarometerVisibility
5:30 PM
Mon, Aug 3
51 °FCool.10 mph77%30.28 "HgN/A
4:30 PM53 °FCool.8 mph81%30.27 "HgN/A
3:00 PM57 °FCool.14 mph60%30.24 "HgN/A
2:30 PM59 °FRefreshingly cool.14 mph55%30.24 "HgN/A
12:00 PM56 °FRefreshingly cool.14 mph54%30.27 "HgN/A
11:30 AM56 °FRefreshingly cool.12 mph58%30.28 "HgN/A
10:30 AM51 °FCool.12 mph82%30.30 "HgN/A
9:00 AM50 °FCool.9 mph76%30.29 "HgN/A
8:30 AM49 °FCool.9 mph78%30.28 "HgN/A
7:30 AM46 °FCool.7 mph82%30.26 "HgN/A
6:00 AM43 °FQuite cool.1 mph85%30.24 "HgN/A
5:30 AM45 °FQuite cool.3 mph84%30.23 "HgN/A
4:30 AM43 °FQuite cool.No wind84%30.22 "HgN/A
3:00 AM45 °FCool.8 mph84%30.22 "HgN/A
2:30 AM46 °FCool.7 mph82%30.22 "HgN/A
1:30 AM45 °FQuite cool.8 mph84%30.24 "HgN/A
12:00 AM45 °FCool.9 mph86%30.24 "HgN/A
11:30 PM
Sun, Aug 2
46 °FCool.5 mph85%30.24 "HgN/A
10:30 PM48 °FCool.8 mph77%30.24 "HgN/A
9:00 PM48 °FCool.6 mph74%30.23 "HgN/A
8:30 PM47 °FCool.8 mph74%30.23 "HgN/A
7:30 PM48 °FCool.9 mph70%30.22 "HgN/A
6:00 PM52 °FCool.16 mph57%30.19 "HgN/A
Weather by CustomWeather, © 2015

See weather overviewHow to use our weather pages